• In Hungary
  • List of Countries
  • For 7 days
  • Water Temperature
  • Satellite Maps
  • Weather Map
  • News
  • Weather Widgets
  • user-avatar
    Login

    Hourly Weather Kadeczka

    Today, 22 January, Monday

    Time Temperature Precipitation Wind Pressure Humidity
    00:00 -5°C° 0.4 mm 3 mps 718 mmHg 94%
    01:00 -6°C° 0 mm 3 mps 718 mmHg 94%
    02:00 -6°C° 0.1 mm 3 mps 718 mmHg 93%
    03:00 -6°C° 0.1 mm 3 mps 718 mmHg 93%
    04:00 -5°C° 0.1 mm 2 mps 718 mmHg 93%
    05:00 -6°C° 0 mm 2 mps 718 mmHg 93%
    06:00 -6°C° 0 mm 2 mps 718 mmHg 93%
    07:00 -4°C° 0 mm 1 mps 718 mmHg 94%
    08:00 -4°C° 0 mm 1 mps 719 mmHg 90%
    09:00 -3°C° 0 mm 1 mps 719 mmHg 85%
    10:00 -3°C° 0 mm 1 mps 719 mmHg 81%
    11:00 -2°C° 0 mm 1 mps 719 mmHg 79%
    12:00 -2°C° 0 mm 1 mps 718 mmHg 76%
    13:00 -1°C° 0 mm 1 mps 718 mmHg 73%
    14:00 -2°C° 0 mm 1 mps 718 mmHg 77%
    15:00 -3°C° 0 mm 1 mps 718 mmHg 81%
    16:00 -3°C° 0 mm 1 mps 718 mmHg 85%
    17:00 -4°C° 0 mm 1 mps 718 mmHg 86%
    18:00 -6°C° 0 mm 1 mps 718 mmHg 88%
    19:00 -6°C° 0 mm 1 mps 718 mmHg 90%
    20:00 -6°C° 0 mm 1 mps 718 mmHg 90%
    21:00 -7°C° 0 mm 1 mps 718 mmHg 89%
    22:00 -7°C° 0 mm 1 mps 718 mmHg 89%
    23:00 -7°C° 0 mm 1 mps 719 mmHg 88%

    Tomorrow, 23 January, Tuesday

    Time Temperature Precipitation Wind Pressure Humidity
    00:00 -6°C° 0 mm 1 mps 719 mmHg 87%
    01:00 -6°C° 0 mm 1 mps 719 mmHg 86%
    02:00 -6°C° 0 mm 1 mps 719 mmHg 85%
    03:00 -6°C° 0 mm 1 mps 719 mmHg 84%
    04:00 -4°C° 0 mm 1 mps 719 mmHg 83%
    05:00 -6°C° 0 mm 1 mps 720 mmHg 83%
    06:00 -6°C° 0 mm 1 mps 720 mmHg 84%
    07:00 -6°C° 0 mm 1 mps 721 mmHg 84%
    08:00 -4°C° 0 mm 1 mps 721 mmHg 81%
    09:00 -2°C° 0 mm 1 mps 722 mmHg 78%
    10:00 -1°C° 0 mm 1 mps 723 mmHg 75%
    11:00 0°C° 0 mm 1 mps 723 mmHg 73%
    12:00 0°C° 0 mm 1 mps 724 mmHg 71%
    13:00 0°C° 0 mm 0 mps 724 mmHg 70%
    14:00 -1°C° 0 mm 0 mps 725 mmHg 74%
    15:00 -1°C° 0 mm 0 mps 725 mmHg 78%
    16:00 -2°C° 0 mm 0 mps 725 mmHg 83%
    17:00 -1°C° 0 mm 1 mps 726 mmHg 84%
    18:00 -2°C° 0 mm 1 mps 726 mmHg 85%
    19:00 -2°C° 0 mm 1 mps 726 mmHg 87%
    20:00 -2°C° 0 mm 1 mps 727 mmHg 87%
    21:00 -2°C° 0 mm 1 mps 727 mmHg 88%
    22:00 -3°C° 0 mm 1 mps 727 mmHg 88%
    23:00 -3°C° 0 mm 1 mps 727 mmHg 88%

    Day after tomorrow, 24 January, Wednesday

    Time Temperature Precipitation Wind Pressure Humidity
    00:00 -5°C° 0 mm 2 mps 727 mmHg 88%
    01:00 -5°C° 0 mm 2 mps 728 mmHg 88%
    02:00 -5°C° 0 mm 2 mps 728 mmHg 89%
    03:00 -5°C° 0 mm 2 mps 727 mmHg 89%
    04:00 -5°C° 0 mm 2 mps 727 mmHg 89%
    05:00 -5°C° 0 mm 2 mps 728 mmHg 89%
    06:00 -5°C° 0 mm 2 mps 728 mmHg 89%
    07:00 -5°C° 0 mm 2 mps 728 mmHg 89%
    08:00 -5°C° 0 mm 3 mps 728 mmHg 87%
    09:00 -2°C° 0 mm 3 mps 728 mmHg 85%
    10:00 -1°C° 0 mm 3 mps 729 mmHg 83%
    11:00 0°C° 0 mm 3 mps 729 mmHg 83%
    12:00 0°C° 0 mm 3 mps 728 mmHg 82%
    13:00 +1°C° 0 mm 3 mps 728 mmHg 82%
    14:00 +1°C° 0 mm 3 mps 728 mmHg 84%
    15:00 0°C° 0 mm 3 mps 728 mmHg 85%
    16:00 0°C° 0 mm 3 mps 728 mmHg 87%
    17:00 -1°C° 0 mm 3 mps 728 mmHg 88%
    18:00 -1°C° 0 mm 3 mps 728 mmHg 89%
    19:00 -2°C° 0 mm 3 mps 728 mmHg 90%
    20:00 -1°C° 0 mm 3 mps 728 mmHg 90%
    21:00 -1°C° 0 mm 3 mps 728 mmHg 90%
    22:00 -1°C° 0 mm 3 mps 728 mmHg 90%
    23:00 -1°C° 0 mm 3 mps 728 mmHg 90%

    25 January, Thursday

    Time Temperature Precipitation Wind Pressure Humidity
    00:00 -1°C° 0 mm 3 mps 727 mmHg 90%
    01:00 -1°C° 0 mm 3 mps 727 mmHg 90%
    02:00 -1°C° 0 mm 3 mps 727 mmHg 89%
    03:00 -1°C° 0 mm 3 mps 727 mmHg 89%
    04:00 -2°C° 0 mm 4 mps 726 mmHg 88%
    05:00 -2°C° 0 mm 4 mps 726 mmHg 88%
    06:00 -2°C° 0 mm 3 mps 726 mmHg 88%
    07:00 -2°C° 0 mm 3 mps 726 mmHg 87%
    08:00 -2°C° 0 mm 4 mps 726 mmHg 85%
    09:00 -1°C° 0 mm 4 mps 726 mmHg 83%
    10:00 0°C° 0 mm 4 mps 726 mmHg 81%
    11:00 0°C° 0 mm 4 mps 725 mmHg 79%
    12:00 +1°C° 0 mm 4 mps 725 mmHg 78%
    13:00 +3°C° 0 mm 3 mps 724 mmHg 76%
    14:00 +2°C° 0 mm 3 mps 724 mmHg 77%
    15:00 +1°C° 0 mm 3 mps 723 mmHg 77%
    16:00 0°C° 0 mm 3 mps 723 mmHg 78%
    17:00 0°C° 0 mm 3 mps 723 mmHg 78%
    18:00 -1°C° 0 mm 3 mps 723 mmHg 78%
    19:00 -1°C° 0 mm 3 mps 723 mmHg 78%
    20:00 -2°C° 0 mm 3 mps 722 mmHg 78%
    21:00 -2°C° 0 mm 3 mps 722 mmHg 78%
    22:00 -2°C° 0 mm 3 mps 722 mmHg 78%
    23:00 -2°C° 0 mm 3 mps 722 mmHg 79%

    26 January, Friday

    Time Temperature Precipitation Wind Pressure Humidity
    00:00 -2°C° 0 mm 3 mps 722 mmHg 80%
    01:00 -1°C° 0 mm 3 mps 722 mmHg 81%
    02:00 -1°C° 0 mm 3 mps 721 mmHg 81%
    03:00 -1°C° 0 mm 3 mps 721 mmHg 82%
    04:00 -1°C° 0 mm 3 mps 721 mmHg 82%
    05:00 -2°C° 0 mm 3 mps 721 mmHg 83%
    06:00 -2°C° 0 mm 3 mps 721 mmHg 84%
    07:00 -2°C° 0 mm 2 mps 721 mmHg 85%
    08:00 -1°C° 0 mm 2 mps 721 mmHg 84%
    09:00 +1°C° 0 mm 2 mps 722 mmHg 83%
    10:00 +2°C° 0 mm 2 mps 722 mmHg 82%
    11:00 +2°C° 0 mm 2 mps 722 mmHg 82%
    12:00 +3°C° 0 mm 2 mps 722 mmHg 82%
    13:00 +3°C° 0 mm 2 mps 722 mmHg 82%
    14:00 +3°C° 0 mm 2 mps 722 mmHg 84%
    15:00 +2°C° 0 mm 2 mps 722 mmHg 85%
    16:00 +2°C° 0 mm 2 mps 722 mmHg 87%
    17:00 +1°C° 0 mm 2 mps 722 mmHg 87%
    18:00 +1°C° 0 mm 2 mps 722 mmHg 87%
    19:00 +1°C° 0 mm 2 mps 722 mmHg 87%
    20:00 +1°C° 0 mm 2 mps 723 mmHg 87%
    21:00 +2°C° 0 mm 1 mps 723 mmHg 87%
    22:00 +2°C° 0 mm 1 mps 723 mmHg 87%
    23:00 +2°C° 0 mm 1 mps 724 mmHg 87%

    27 January, Saturday

    Time Temperature Precipitation Wind Pressure Humidity
    00:00 +2°C° 0 mm 1 mps 724 mmHg 87%
    01:00 +2°C° 0 mm 1 mps 724 mmHg 88%
    02:00 +2°C° 0 mm 1 mps 724 mmHg 88%
    03:00 +2°C° 0 mm 1 mps 724 mmHg 89%
    04:00 +2°C° 0 mm 1 mps 724 mmHg 89%
    05:00 +2°C° 0 mm 1 mps 725 mmHg 90%
    06:00 +2°C° 0 mm 1 mps 725 mmHg 90%
    07:00 +2°C° 0 mm 1 mps 726 mmHg 91%
    08:00 +2°C° 0 mm 1 mps 726 mmHg 90%
    09:00 +3°C° 0 mm 1 mps 727 mmHg 90%
    10:00 +4°C° 0 mm 1 mps 727 mmHg 89%
    11:00 +4°C° 0.1 mm 1 mps 728 mmHg 88%
    12:00 +4°C° 0.1 mm 1 mps 728 mmHg 88%
    13:00 +5°C° 0.1 mm 1 mps 728 mmHg 87%
    14:00 +4°C° 0.1 mm 1 mps 729 mmHg 90%
    15:00 +4°C° 0.1 mm 1 mps 729 mmHg 92%
    16:00 +3°C° 0.1 mm 1 mps 729 mmHg 95%
    17:00 +3°C° 0.1 mm 1 mps 730 mmHg 95%
    18:00 +3°C° 0.1 mm 1 mps 730 mmHg 95%
    19:00 +2°C° 0.1 mm 1 mps 731 mmHg 96%
    20:00 +1°C° 0.1 mm 2 mps 731 mmHg 95%
    21:00 +1°C° 0.1 mm 2 mps 732 mmHg 95%
    22:00 +1°C° 0.1 mm 2 mps 732 mmHg 94%
    23:00 +1°C° 0 mm 2 mps 732 mmHg 94%
    Show more